• In Deutschland
  • Länderverzeichnis
  • Für 7 Tage
  • Wassertemperatur
  • Satellitenkarten
  • Wetterkarte
  • Widgets
  • user-avatar
    Anmelden

    Stündliche Wetter Kiustendil

    Heute, 25 Februar, Sonntag

    Zeit Temperatur Niederschläge Wind Luftdruck Luftfeuchtigkeit
    00:00 -9°C° 0 mm 3 m/S 617 mmHg 80%
    01:00 -10°C° 0 mm 3 m/S 617 mmHg 79%
    02:00 -10°C° 0 mm 3 m/S 617 mmHg 78%
    03:00 -10°C° 0 mm 3 m/S 617 mmHg 77%
    04:00 -10°C° 0 mm 2 m/S 617 mmHg 76%
    05:00 -10°C° 0 mm 2 m/S 617 mmHg 74%
    06:00 -10°C° 0 mm 2 m/S 617 mmHg 72%
    07:00 -10°C° 0 mm 2 m/S 617 mmHg 70%
    08:00 -10°C° 0,1 mm 2 m/S 617 mmHg 69%
    09:00 -10°C° 0,1 mm 3 m/S 618 mmHg 67%
    10:00 -9°C° 0,1 mm 3 m/S 618 mmHg 66%
    11:00 -9°C° 0,4 mm 3 m/S 618 mmHg 70%
    12:00 -10°C° 0,4 mm 3 m/S 618 mmHg 74%
    13:00 -10°C° 0,4 mm 3 m/S 617 mmHg 77%
    14:00 -9°C° 0,4 mm 2 m/S 617 mmHg 78%
    15:00 -9°C° 0,4 mm 2 m/S 617 mmHg 79%
    16:00 -9°C° 0,4 mm 2 m/S 617 mmHg 80%
    17:00 -9°C° 0,5 mm 2 m/S 617 mmHg 83%
    18:00 -10°C° 0,5 mm 2 m/S 617 mmHg 85%
    19:00 -10°C° 0,5 mm 2 m/S 616 mmHg 88%
    20:00 -10°C° 0,6 mm 2 m/S 616 mmHg 89%
    21:00 -10°C° 0,6 mm 2 m/S 616 mmHg 89%
    22:00 -13°C° 0,6 mm 3 m/S 615 mmHg 90%
    23:00 -13°C° 0,7 mm 3 m/S 615 mmHg 90%

    Morgen, 26 Februar, Montag

    Zeit Temperatur Niederschläge Wind Luftdruck Luftfeuchtigkeit
    00:00 -13°C° 0,7 mm 3 m/S 615 mmHg 91%
    01:00 -13°C° 0,7 mm 3 m/S 614 mmHg 91%
    02:00 -13°C° 0,8 mm 3 m/S 614 mmHg 91%
    03:00 -13°C° 0,8 mm 3 m/S 613 mmHg 91%
    04:00 -13°C° 0,8 mm 3 m/S 612 mmHg 91%
    05:00 -13°C° 0,9 mm 3 m/S 612 mmHg 91%
    06:00 -13°C° 0,9 mm 3 m/S 612 mmHg 91%
    07:00 -14°C° 0,9 mm 3 m/S 611 mmHg 92%
    08:00 -13°C° 1 mm 3 m/S 611 mmHg 91%
    09:00 -14°C° 1 mm 4 m/S 611 mmHg 91%
    10:00 -14°C° 1 mm 4 m/S 611 mmHg 90%
    11:00 -14°C° 0,6 mm 4 m/S 611 mmHg 90%
    12:00 -14°C° 0,6 mm 4 m/S 611 mmHg 89%
    13:00 -14°C° 0,6 mm 4 m/S 611 mmHg 88%
    14:00 -13°C° 0,4 mm 3 m/S 611 mmHg 89%
    15:00 -14°C° 0,4 mm 3 m/S 611 mmHg 89%
    16:00 -14°C° 0,4 mm 3 m/S 611 mmHg 90%
    17:00 -14°C° 0,3 mm 2 m/S 611 mmHg 90%
    18:00 -15°C° 0,3 mm 2 m/S 611 mmHg 91%
    19:00 -15°C° 0,3 mm 2 m/S 611 mmHg 91%
    20:00 -16°C° 0,1 mm 2 m/S 611 mmHg 91%
    21:00 -16°C° 0,1 mm 2 m/S 611 mmHg 91%
    22:00 -16°C° 0,1 mm 2 m/S 611 mmHg 91%
    23:00 -17°C° 0,1 mm 2 m/S 610 mmHg 90%

    übermorgen, 27 Februar, Dienstag

    Zeit Temperatur Niederschläge Wind Luftdruck Luftfeuchtigkeit
    00:00 -17°C° 0,1 mm 2 m/S 610 mmHg 90%
    01:00 -16°C° 0,1 mm 1 m/S 610 mmHg 89%
    02:00 -15°C° 0,1 mm 1 m/S 610 mmHg 90%
    03:00 -15°C° 0,1 mm 1 m/S 610 mmHg 90%
    04:00 -15°C° 0,1 mm 1 m/S 610 mmHg 91%
    05:00 -14°C° 0,1 mm 1 m/S 610 mmHg 90%
    06:00 -14°C° 0,1 mm 1 m/S 610 mmHg 90%
    07:00 -14°C° 0,1 mm 1 m/S 611 mmHg 89%
    08:00 -13°C° 0,1 mm 1 m/S 611 mmHg 87%
    09:00 -11°C° 0,1 mm 1 m/S 612 mmHg 85%
    10:00 -10°C° 0,1 mm 1 m/S 613 mmHg 83%
    11:00 -9°C° 0 mm 1 m/S 613 mmHg 84%
    12:00 -8°C° 0 mm 1 m/S 613 mmHg 84%
    13:00 -7°C° 0 mm 1 m/S 614 mmHg 84%
    14:00 -7°C° 0,1 mm 1 m/S 614 mmHg 85%
    15:00 -7°C° 0,1 mm 1 m/S 614 mmHg 86%
    16:00 -7°C° 0,1 mm 1 m/S 614 mmHg 86%
    17:00 -9°C° 0 mm 1 m/S 614 mmHg 86%
    18:00 -10°C° 0 mm 1 m/S 614 mmHg 87%
    19:00 -12°C° 0 mm 1 m/S 614 mmHg 87%
    20:00 -12°C° 0 mm 1 m/S 614 mmHg 87%
    21:00 -12°C° 0 mm 1 m/S 614 mmHg 87%
    22:00 -12°C° 0 mm 1 m/S 615 mmHg 86%
    23:00 -12°C° 0,1 mm 1 m/S 615 mmHg 87%

    28 Februar, Mittwoch

    Zeit Temperatur Niederschläge Wind Luftdruck Luftfeuchtigkeit
    00:00 -11°C° 0,1 mm 1 m/S 615 mmHg 87%
    01:00 -11°C° 0,1 mm 1 m/S 615 mmHg 88%
    02:00 -12°C° 0 mm 1 m/S 615 mmHg 88%
    03:00 -12°C° 0 mm 1 m/S 614 mmHg 88%
    04:00 -14°C° 0 mm 2 m/S 614 mmHg 88%
    05:00 -15°C° 0 mm 2 m/S 614 mmHg 87%
    06:00 -16°C° 0 mm 2 m/S 614 mmHg 87%
    07:00 -16°C° 0 mm 2 m/S 614 mmHg 87%
    08:00 -15°C° 0 mm 2 m/S 615 mmHg 85%
    09:00 -13°C° 0 mm 2 m/S 616 mmHg 83%
    10:00 -12°C° 0 mm 2 m/S 617 mmHg 81%
    11:00 -10°C° 0 mm 2 m/S 617 mmHg 80%
    12:00 -10°C° 0 mm 2 m/S 617 mmHg 79%
    13:00 -9°C° 0 mm 2 m/S 617 mmHg 78%
    14:00 -10°C° 0 mm 2 m/S 617 mmHg 79%
    15:00 -10°C° 0 mm 2 m/S 618 mmHg 80%
    16:00 -12°C° 0 mm 2 m/S 618 mmHg 82%
    17:00 -13°C° 0 mm 2 m/S 618 mmHg 83%
    18:00 -15°C° 0 mm 2 m/S 618 mmHg 85%
    19:00 -17°C° 0 mm 2 m/S 618 mmHg 86%
    20:00 -17°C° 0 mm 2 m/S 618 mmHg 85%
    21:00 -16°C° 0 mm 1 m/S 618 mmHg 84%
    22:00 -16°C° 0 mm 1 m/S 618 mmHg 82%
    23:00 -17°C° 0 mm 1 m/S 618 mmHg 81%

    1 März, Donnerstag

    Zeit Temperatur Niederschläge Wind Luftdruck Luftfeuchtigkeit
    00:00 -17°C° 0 mm 1 m/S 619 mmHg 80%
    01:00 -17°C° 0 mm 1 m/S 619 mmHg 79%
    02:00 -17°C° 0 mm 1 m/S 619 mmHg 78%
    03:00 -18°C° 0 mm 1 m/S 619 mmHg 78%
    04:00 -18°C° 0 mm 1 m/S 619 mmHg 77%
    05:00 -17°C° 0 mm 1 m/S 619 mmHg 76%
    06:00 -17°C° 0 mm 1 m/S 619 mmHg 75%
    07:00 -16°C° 0 mm 1 m/S 620 mmHg 74%
    08:00 -14°C° 0 mm 1 m/S 620 mmHg 72%
    09:00 -11°C° 0 mm 1 m/S 621 mmHg 69%
    10:00 -9°C° 0 mm 1 m/S 622 mmHg 67%
    11:00 -9°C° 0 mm 2 m/S 622 mmHg 69%
    12:00 -8°C° 0 mm 2 m/S 621 mmHg 70%
    13:00 -7°C° 0 mm 2 m/S 621 mmHg 72%
    14:00 -7°C° 0 mm 2 m/S 621 mmHg 74%
    15:00 -7°C° 0 mm 2 m/S 621 mmHg 77%
    16:00 -7°C° 0 mm 2 m/S 620 mmHg 79%
    17:00 -8°C° 0 mm 2 m/S 620 mmHg 80%
    18:00 -9°C° 0 mm 2 m/S 620 mmHg 80%
    19:00 -12°C° 0 mm 2 m/S 619 mmHg 81%
    20:00 -10°C° 0 mm 2 m/S 619 mmHg 82%
    21:00 -10°C° 0 mm 2 m/S 619 mmHg 82%
    22:00 -10°C° 0 mm 2 m/S 619 mmHg 83%
    23:00 -10°C° 0 mm 2 m/S 619 mmHg 85%

    2 März, Freitag

    Zeit Temperatur Niederschläge Wind Luftdruck Luftfeuchtigkeit
    00:00 -9°C° 0 mm 2 m/S 619 mmHg 86%
    01:00 -9°C° 0 mm 2 m/S 619 mmHg 88%
    02:00 -8°C° 0 mm 2 m/S 619 mmHg 89%
    03:00 -8°C° 0 mm 2 m/S 618 mmHg 90%
    04:00 -7°C° 0 mm 2 m/S 618 mmHg 92%
    05:00 -6°C° 0,2 mm 2 m/S 618 mmHg 92%
    06:00 -7°C° 0,2 mm 3 m/S 618 mmHg 93%
    07:00 -6°C° 0,2 mm 3 m/S 618 mmHg 94%
    08:00 -6°C° 0,1 mm 3 m/S 618 mmHg 94%
    09:00 -5°C° 0,1 mm 3 m/S 618 mmHg 94%
    10:00 -5°C° 0,1 mm 3 m/S 618 mmHg 95%
    11:00 -5°C° 0,1 mm 3 m/S 618 mmHg 95%
    12:00 -4°C° 0,1 mm 3 m/S 617 mmHg 95%
    13:00 -4°C° 0,1 mm 3 m/S 617 mmHg 95%
    14:00 -4°C° 0,1 mm 3 m/S 617 mmHg 95%
    15:00 -4°C° 0,1 mm 3 m/S 617 mmHg 96%
    16:00 -4°C° 0,1 mm 2 m/S 617 mmHg 96%
    17:00 -4°C° 0,2 mm 2 m/S 617 mmHg 96%
    18:00 -4°C° 0,2 mm 2 m/S 616 mmHg 96%
    19:00 -5°C° 0,2 mm 2 m/S 616 mmHg 96%
    20:00 -5°C° 0,2 mm 2 m/S 616 mmHg 96%
    21:00 -5°C° 0,2 mm 2 m/S 616 mmHg 96%
    22:00 -4°C° 0,2 mm 2 m/S 616 mmHg 95%
    23:00 -4°C° 0,1 mm 2 m/S 616 mmHg 96%
    Mehr zeigen